Tracking 29932 objects as of 3-Dec-2024
HD Live streaming from Space Station
objects crossing your sky now

STARLINK-30563

Track STARLINK-30563 now!
10-day predictions
STARLINK-30563 is classified as:


NORAD ID: 58042
Int'l Code: 2023-156Q
Perigee: 470.3 km
Apogee: 470.6 km
Inclination: 53.2 °
Period: 93.9 minutes
Semi major axis: 6841 km
RCS: Unknown
Launch date: October 9, 2023
Source: United States (US)
Launch site: AIR FORCE WESTERN TEST RANGE (AFWTR)
Your satellite tracking list
Your tracking list is empty




NASA's NSSDC Master Catalog

Two Line Element Set (TLE):
1 58042U 23156Q   24337.55735045  .00005201  00000-0  16592-3 0  9993
2 58042  53.1571  68.8715 0000215  85.3241 274.7785 15.34208793 65507
Source of the keplerian elements: AFSPC